This is the latest recevied weather packets stored in our database for station/object OE-11141. If no packets are shown the sender has not sent any weather packets the latest 10 day(s).
| Time | Temp. | Humidity | Pressure | Rain* | Wind** | Luminosity | Snow |
|---|---|---|---|---|---|---|---|
| 1787886677 | 16.67° C | 91% | 1015.1 hPa | 0 mm | - | 0 W/m² | - |
| 1787886304 | 16.11° C | 93% | 1015.2 hPa | 0 mm | - | 0 W/m² | - |
| 1787885705 | 16.67° C | 93% | 1015.3 hPa | 0 mm | - | 0 W/m² | - |
| 1787884878 | 16.67° C | 93% | 1015.2 hPa | 0 mm | - | 0 W/m² | - |
| 1787884505 | 16.67° C | 94% | 1015.1 hPa | 0 mm | - | 0 W/m² | - |
| 1787883905 | 16.67° C | 93% | 1015.2 hPa | 0 mm | - | 0 W/m² | - |
| 1787883078 | 16.67° C | 92% | 1015.1 hPa | 0 mm | - | 0 W/m² | - |
| 1787882705 | 17.22° C | 92% | 1015 hPa | 0 mm | - | 0 W/m² | - |
| 1787881278 | 17.22° C | 91% | 1015 hPa | 0 mm | - | 0 W/m² | - |
| 1787880905 | 17.22° C | 92% | 1014.9 hPa | 0 mm | - | 0 W/m² | - |
| 1787880305 | 17.22° C | 91% | 1015 hPa | 0 mm | - | 0 W/m² | - |
| 1787879477 | 17.22° C | 92% | 1015 hPa | 0 mm | - | 0 W/m² | - |
| 1787879104 | 17.22° C | 90% | 1014.9 hPa | 0 mm | - | 0 W/m² | - |
| 1787878505 | 17.22° C | 92% | 1015 hPa | 0 mm | - | 0 W/m² | - |
| 1787877677 | 17.78° C | 88% | 1014.9 hPa | 0 mm | - | 0 W/m² | - |
| 1787877305 | 17.78° C | 88% | 1014.9 hPa | 0 mm | - | 0 W/m² | - |
| 1787876705 | 17.78° C | 89% | 1014.8 hPa | 0 mm | - | 0 W/m² | - |
| 1787875877 | 17.78° C | 88% | 1014.8 hPa | 0 mm | - | 0 W/m² | - |
| 1787875504 | 17.78° C | 88% | 1014.9 hPa | 0 mm | - | 0 W/m² | - |
| 1787874905 | 17.78° C | 89% | 1015 hPa | 0 mm | - | 0 W/m² | - |
| 1787874077 | 17.78° C | 88% | 1015.1 hPa | 0 mm | - | 0 W/m² | - |
| 1787873705 | 18.33° C | 85% | 1014.8 hPa | 0 mm | - | 0 W/m² | - |
| 1787873104 | 18.33° C | 85% | 1014.9 hPa | 0 mm | - | 0 W/m² | - |
| 1787872505 | 18.33° C | 87% | 1015 hPa | 0 mm | - | 0 W/m² | - |
| 1787871904 | 18.33° C | 87% | 1015 hPa | 0 mm | - | 0 W/m² | - |
* Rain latest hour (hover to see other rain measurements)
** Current wind speed in m/s (hover to see current wind gust speed)